Year,Month,Day,Hour,Minute,Value (Times are PST for temperature in C)
2016,08,11,00,00,15.00
2016,08,11,00,01,15.00
2016,08,11,00,02,15.00
2016,08,11,00,03,15.00
2016,08,11,00,04,15.00
2016,08,11,00,05,15.00
2016,08,11,00,06,15.00
2016,08,11,00,07,15.00
2016,08,11,00,08,15.00
2016,08,11,00,09,15.00
2016,08,11,00,10,14.90
2016,08,11,00,11,14.90
2016,08,11,00,12,14.90
2016,08,11,00,13,14.90
2016,08,11,00,14,14.90
2016,08,11,00,15,14.90
2016,08,11,00,16,14.90
2016,08,11,00,17,14.90
2016,08,11,00,18,14.90
2016,08,11,00,19,14.90
2016,08,11,00,20,14.90
2016,08,11,00,21,14.90
2016,08,11,00,22,14.90
2016,08,11,00,23,14.90
2016,08,11,00,24,14.80
2016,08,11,00,25,14.80
2016,08,11,00,26,14.80
2016,08,11,00,27,14.80
2016,08,11,00,28,14.80
2016,08,11,00,29,14.80
2016,08,11,00,30,14.80
2016,08,11,00,31,14.80
2016,08,11,00,32,14.80
2016,08,11,00,33,14.70
2016,08,11,00,34,14.70
2016,08,11,00,35,14.70
2016,08,11,00,36,14.70
2016,08,11,00,37,14.70
2016,08,11,00,38,14.70
2016,08,11,00,39,14.70
2016,08,11,00,40,14.70
2016,08,11,00,41,14.70
2016,08,11,00,42,14.70
2016,08,11,00,43,14.70
2016,08,11,00,44,14.70
2016,08,11,00,45,14.70
2016,08,11,00,46,14.70
2016,08,11,00,47,14.70
2016,08,11,00,48,14.70
2016,08,11,00,49,14.70
2016,08,11,00,50,14.70
2016,08,11,00,51,14.70
2016,08,11,00,52,14.70
2016,08,11,00,53,14.70
2016,08,11,00,54,14.70
2016,08,11,00,55,14.70
2016,08,11,00,56,14.70
2016,08,11,00,57,14.70
2016,08,11,00,58,14.70
2016,08,11,00,59,14.70
2016,08,11,01,00,14.70
2016,08,11,01,01,14.70
2016,08,11,01,02,14.70
2016,08,11,01,03,14.70
2016,08,11,01,04,14.70
2016,08,11,01,05,14.70
2016,08,11,01,06,14.70
2016,08,11,01,07,14.70
2016,08,11,01,08,14.70
2016,08,11,01,09,14.70
2016,08,11,01,10,14.70
2016,08,11,01,11,14.70
2016,08,11,01,12,14.70
2016,08,11,01,13,14.70
2016,08,11,01,14,14.70
2016,08,11,01,15,14.80
2016,08,11,01,16,14.80
2016,08,11,01,17,14.80
2016,08,11,01,18,14.80
2016,08,11,01,19,14.80
2016,08,11,01,20,14.80
2016,08,11,01,21,14.80
2016,08,11,01,22,14.80
2016,08,11,01,23,14.80
2016,08,11,01,24,14.80
2016,08,11,01,25,14.80
2016,08,11,01,26,14.80
2016,08,11,01,27,14.80
2016,08,11,01,28,14.80
2016,08,11,01,29,14.80
2016,08,11,01,30,14.80
2016,08,11,01,31,14.80
2016,08,11,01,32,14.80
2016,08,11,01,33,14.80
2016,08,11,01,34,14.80
2016,08,11,01,35,14.80
2016,08,11,01,36,14.80
2016,08,11,01,37,14.80
2016,08,11,01,38,14.80
2016,08,11,01,39,14.80
2016,08,11,01,40,14.80
2016,08,11,01,41,14.80
2016,08,11,01,42,14.70
2016,08,11,01,43,14.70
2016,08,11,01,44,14.70
2016,08,11,01,45,14.70
2016,08,11,01,46,14.70
2016,08,11,01,47,14.80
2016,08,11,01,48,14.80
2016,08,11,01,49,14.80
2016,08,11,01,50,14.80
2016,08,11,01,51,14.80
2016,08,11,01,52,14.80
2016,08,11,01,53,14.80
2016,08,11,01,54,14.80
2016,08,11,01,55,14.80
2016,08,11,01,56,14.70
2016,08,11,01,57,14.70
2016,08,11,01,58,14.70
2016,08,11,01,59,14.70
2016,08,11,02,00,14.70
2016,08,11,02,01,14.70
2016,08,11,02,02,14.70
2016,08,11,02,03,14.70
2016,08,11,02,04,14.70
2016,08,11,02,05,14.70
2016,08,11,02,06,14.70
2016,08,11,02,07,14.60
2016,08,11,02,08,14.60
2016,08,11,02,09,14.60
2016,08,11,02,10,14.60
2016,08,11,02,11,14.60
2016,08,11,02,12,14.60
2016,08,11,02,13,14.50
2016,08,11,02,14,14.50
2016,08,11,02,15,14.50
2016,08,11,02,16,14.50
2016,08,11,02,17,14.50
2016,08,11,02,18,14.50
2016,08,11,02,19,14.40
2016,08,11,02,20,14.40
2016,08,11,02,21,14.40
2016,08,11,02,22,14.40
2016,08,11,02,23,14.30
2016,08,11,02,24,14.30
2016,08,11,02,25,14.30
2016,08,11,02,26,14.30
2016,08,11,02,27,14.30
2016,08,11,02,28,14.30
2016,08,11,02,29,14.30
2016,08,11,02,30,14.30
2016,08,11,02,31,14.30
2016,08,11,02,32,14.30
2016,08,11,02,33,14.20
2016,08,11,02,34,14.20
2016,08,11,02,35,14.20
2016,08,11,02,36,14.20
2016,08,11,02,37,14.20
2016,08,11,02,38,14.20
2016,08,11,02,39,14.20
2016,08,11,02,40,14.20
2016,08,11,02,41,14.10
2016,08,11,02,42,14.10
2016,08,11,02,43,14.10
2016,08,11,02,44,14.10
2016,08,11,02,45,14.10
2016,08,11,02,46,14.10
2016,08,11,02,47,14.10
2016,08,11,02,48,14.00
2016,08,11,02,49,14.00
2016,08,11,02,50,14.00
2016,08,11,02,51,14.00
2016,08,11,02,52,13.90
2016,08,11,02,53,13.90
2016,08,11,02,54,13.90
2016,08,11,02,55,13.90
2016,08,11,02,56,13.90
2016,08,11,02,57,13.90
2016,08,11,02,58,13.90
2016,08,11,02,59,13.80
2016,08,11,03,00,13.80
2016,08,11,03,01,13.80
2016,08,11,03,02,13.80
2016,08,11,03,03,13.80
2016,08,11,03,04,13.80
2016,08,11,03,05,13.80
2016,08,11,03,06,13.80
2016,08,11,03,07,13.80
2016,08,11,03,08,13.70
2016,08,11,03,09,13.70
2016,08,11,03,10,13.70
2016,08,11,03,11,13.70
2016,08,11,03,12,13.70
2016,08,11,03,13,13.70
2016,08,11,03,14,13.70
2016,08,11,03,15,13.70
2016,08,11,03,16,13.70
2016,08,11,03,17,13.70
2016,08,11,03,18,13.70
2016,08,11,03,19,13.70
2016,08,11,03,20,13.70
2016,08,11,03,21,13.70
2016,08,11,03,22,13.60
2016,08,11,03,23,13.60
2016,08,11,03,24,13.60
2016,08,11,03,25,13.60
2016,08,11,03,26,13.60
2016,08,11,03,27,13.60
2016,08,11,03,28,13.60
2016,08,11,03,29,13.60
2016,08,11,03,30,13.60
2016,08,11,03,31,13.50
2016,08,11,03,32,13.50
2016,08,11,03,33,13.50
2016,08,11,03,34,13.50
2016,08,11,03,35,13.50
2016,08,11,03,36,13.40
2016,08,11,03,37,13.40
2016,08,11,03,38,13.40
2016,08,11,03,39,13.40
2016,08,11,03,40,13.40
2016,08,11,03,41,13.40
2016,08,11,03,42,13.30
2016,08,11,03,43,13.30
2016,08,11,03,44,13.30
2016,08,11,03,45,13.30
2016,08,11,03,46,13.30
2016,08,11,03,47,13.30
2016,08,11,03,48,13.30
2016,08,11,03,49,13.20
2016,08,11,03,50,13.20
2016,08,11,03,51,13.20
2016,08,11,03,52,13.20
2016,08,11,03,53,13.20
2016,08,11,03,54,13.20
2016,08,11,03,55,13.20
2016,08,11,03,56,13.10
2016,08,11,03,57,13.10
2016,08,11,03,58,13.10
2016,08,11,03,59,13.10
2016,08,11,04,00,13.10
2016,08,11,04,01,13.10
2016,08,11,04,02,13.10
2016,08,11,04,03,13.00
2016,08,11,04,04,13.00
2016,08,11,04,05,13.00
2016,08,11,04,06,13.00
2016,08,11,04,07,13.00
2016,08,11,04,08,12.90
2016,08,11,04,09,12.90
2016,08,11,04,10,12.90
2016,08,11,04,11,12.90
2016,08,11,04,12,12.90
2016,08,11,04,13,12.90
2016,08,11,04,14,12.90
2016,08,11,04,15,12.90
2016,08,11,04,16,12.90
2016,08,11,04,17,12.90
2016,08,11,04,18,12.90
2016,08,11,04,19,12.80
2016,08,11,04,20,12.80
2016,08,11,04,21,12.80
2016,08,11,04,22,12.80
2016,08,11,04,23,12.80
2016,08,11,04,24,12.80
2016,08,11,04,25,12.80
2016,08,11,04,26,12.80
2016,08,11,04,27,12.80
2016,08,11,04,28,12.80
2016,08,11,04,29,12.80
2016,08,11,04,30,12.80
2016,08,11,04,31,12.80
2016,08,11,04,32,12.80
2016,08,11,04,33,12.80
2016,08,11,04,34,12.80
2016,08,11,04,35,12.80
2016,08,11,04,36,12.80
2016,08,11,04,37,12.80
2016,08,11,04,38,12.80
2016,08,11,04,39,12.80
2016,08,11,04,40,12.80
2016,08,11,04,41,12.80
2016,08,11,04,42,12.70
2016,08,11,04,43,12.70
2016,08,11,04,44,12.70
2016,08,11,04,45,12.70
2016,08,11,04,46,12.70
2016,08,11,04,47,12.70
2016,08,11,04,48,12.70
2016,08,11,04,49,12.70
2016,08,11,04,50,12.70
2016,08,11,04,51,12.60
2016,08,11,04,52,12.60
2016,08,11,04,53,12.60
2016,08,11,04,54,12.60
2016,08,11,04,55,12.60
2016,08,11,04,56,12.60
2016,08,11,04,57,12.60
2016,08,11,04,58,12.60
2016,08,11,04,59,12.60
2016,08,11,05,00,12.60
2016,08,11,05,01,12.50
2016,08,11,05,02,12.50
2016,08,11,05,03,12.50
2016,08,11,05,04,12.50
2016,08,11,05,05,12.50
2016,08,11,05,06,12.50
2016,08,11,05,07,12.50
2016,08,11,05,08,12.50
2016,08,11,05,09,12.50
2016,08,11,05,10,12.40
2016,08,11,05,11,12.50
2016,08,11,05,12,12.40
2016,08,11,05,13,12.40
2016,08,11,05,14,12.40
2016,08,11,05,15,12.40
2016,08,11,05,16,12.40
2016,08,11,05,17,12.40
2016,08,11,05,18,12.40
2016,08,11,05,19,12.40
2016,08,11,05,20,12.40
2016,08,11,05,21,12.40
2016,08,11,05,22,12.30
2016,08,11,05,23,12.30
2016,08,11,05,24,12.30
2016,08,11,05,25,12.30
2016,08,11,05,26,12.30
2016,08,11,05,27,12.30
2016,08,11,05,28,12.30
2016,08,11,05,29,12.30
2016,08,11,05,30,12.30
2016,08,11,05,31,12.30
2016,08,11,05,32,12.30
2016,08,11,05,33,12.30
2016,08,11,05,34,12.30
2016,08,11,05,35,12.30
2016,08,11,05,36,12.30
2016,08,11,05,37,12.30
2016,08,11,05,38,12.40
2016,08,11,05,39,12.40
2016,08,11,05,40,12.40
2016,08,11,05,41,12.40
2016,08,11,05,42,12.40
2016,08,11,05,43,12.30
2016,08,11,05,44,12.30
2016,08,11,05,45,12.30
2016,08,11,05,46,12.30
2016,08,11,05,47,12.30
2016,08,11,05,48,12.20
2016,08,11,05,49,12.20
2016,08,11,05,50,12.20
2016,08,11,05,51,12.20
2016,08,11,05,52,12.20
2016,08,11,05,53,12.20
2016,08,11,05,54,12.20
2016,08,11,05,55,12.20
2016,08,11,05,56,12.20
2016,08,11,05,57,12.20
2016,08,11,05,58,12.20
2016,08,11,05,59,12.20
2016,08,11,06,00,12.20
2016,08,11,06,01,12.20
2016,08,11,06,02,12.20
2016,08,11,06,03,12.20
2016,08,11,06,04,12.20
2016,08,11,06,05,12.20
2016,08,11,06,06,12.10
2016,08,11,06,07,12.10
2016,08,11,06,08,12.10
2016,08,11,06,09,12.10
2016,08,11,06,10,12.10
2016,08,11,06,11,12.10
2016,08,11,06,12,12.10
2016,08,11,06,13,12.10
2016,08,11,06,14,12.10
2016,08,11,06,15,12.10
2016,08,11,06,16,12.10
2016,08,11,06,17,12.00
2016,08,11,06,18,12.00
2016,08,11,06,19,12.00
2016,08,11,06,20,12.00
2016,08,11,06,21,12.00
2016,08,11,06,22,12.00
2016,08,11,06,23,12.00
2016,08,11,06,24,12.00
2016,08,11,06,25,12.00
2016,08,11,06,26,12.00
2016,08,11,06,27,11.90
2016,08,11,06,28,11.90
2016,08,11,06,29,12.00
2016,08,11,06,30,12.00
2016,08,11,06,31,12.00
2016,08,11,06,32,12.00
2016,08,11,06,33,12.00
2016,08,11,06,34,12.00
2016,08,11,06,35,12.00
2016,08,11,06,36,12.00
2016,08,11,06,37,12.10
2016,08,11,06,38,12.10
2016,08,11,06,39,12.10
2016,08,11,06,40,12.10
2016,08,11,06,41,12.10
2016,08,11,06,42,12.10
2016,08,11,06,43,12.20
2016,08,11,06,44,12.20
2016,08,11,06,45,12.20
2016,08,11,06,46,12.20
2016,08,11,06,47,12.20
2016,08,11,06,48,12.20
2016,08,11,06,49,12.30
2016,08,11,06,50,12.30
2016,08,11,06,51,12.30
2016,08,11,06,52,12.30
2016,08,11,06,53,12.30
2016,08,11,06,54,12.40
2016,08,11,06,55,12.40
2016,08,11,06,56,12.40
2016,08,11,06,57,12.50
2016,08,11,06,58,12.50
2016,08,11,06,59,12.60
2016,08,11,07,00,12.60
2016,08,11,07,01,12.70
2016,08,11,07,02,12.70
2016,08,11,07,03,12.80
2016,08,11,07,04,12.80
2016,08,11,07,05,12.90
2016,08,11,07,06,13.00
2016,08,11,07,07,13.00
2016,08,11,07,08,13.10
2016,08,11,07,09,13.20
2016,08,11,07,10,13.30
2016,08,11,07,11,13.30
2016,08,11,07,12,13.40
2016,08,11,07,13,13.50
2016,08,11,07,14,13.50
2016,08,11,07,15,13.60
2016,08,11,07,16,13.70
2016,08,11,07,17,13.80
2016,08,11,07,18,13.90
2016,08,11,07,19,14.00
2016,08,11,07,20,14.10
2016,08,11,07,21,14.10
2016,08,11,07,22,14.20
2016,08,11,07,23,14.20
2016,08,11,07,24,14.30
2016,08,11,07,25,14.30
2016,08,11,07,26,14.40
2016,08,11,07,27,14.40
2016,08,11,07,28,14.40
2016,08,11,07,29,14.50
2016,08,11,07,30,14.60
2016,08,11,07,31,14.60
2016,08,11,07,32,14.70
2016,08,11,07,33,14.70
2016,08,11,07,34,14.80
2016,08,11,07,35,14.80
2016,08,11,07,36,14.90
2016,08,11,07,37,14.90
2016,08,11,07,38,15.00
2016,08,11,07,39,15.10
2016,08,11,07,40,15.10
2016,08,11,07,41,15.20
2016,08,11,07,42,15.20
2016,08,11,07,43,15.30
2016,08,11,07,44,15.30
2016,08,11,07,45,15.40
2016,08,11,07,46,15.50
2016,08,11,07,47,15.50
2016,08,11,07,48,15.60
2016,08,11,07,49,15.70
2016,08,11,07,50,15.80
2016,08,11,07,51,15.80
2016,08,11,07,52,15.90
2016,08,11,07,53,16.00
2016,08,11,07,54,16.00
2016,08,11,07,55,16.10
2016,08,11,07,56,16.20
2016,08,11,07,57,16.20
2016,08,11,07,58,16.30
2016,08,11,07,59,16.40
2016,08,11,08,00,16.40
2016,08,11,08,01,16.50
2016,08,11,08,02,16.60
2016,08,11,08,03,16.70
2016,08,11,08,04,16.80
2016,08,11,08,05,16.80
2016,08,11,08,06,16.90
2016,08,11,08,07,17.00
2016,08,11,08,08,17.10
2016,08,11,08,09,17.10
2016,08,11,08,10,17.20
2016,08,11,08,11,17.30
2016,08,11,08,12,17.30
2016,08,11,08,13,17.40
2016,08,11,08,14,17.40
2016,08,11,08,15,17.50
2016,08,11,08,16,17.60
2016,08,11,08,17,17.70
2016,08,11,08,18,17.80
2016,08,11,08,19,17.80
2016,08,11,08,20,17.90
2016,08,11,08,21,17.90
2016,08,11,08,22,17.90
2016,08,11,08,23,17.90
2016,08,11,08,24,18.00
2016,08,11,08,25,18.00
2016,08,11,08,26,18.00
2016,08,11,08,27,18.10
2016,08,11,08,28,18.10
2016,08,11,08,29,18.10
2016,08,11,08,30,18.20
2016,08,11,08,31,18.20
2016,08,11,08,32,18.20
2016,08,11,08,33,18.30
2016,08,11,08,34,18.30
2016,08,11,08,35,18.40
2016,08,11,08,36,18.50
2016,08,11,08,37,18.50
2016,08,11,08,38,18.60
2016,08,11,08,39,18.60
2016,08,11,08,40,18.60
2016,08,11,08,41,18.60
2016,08,11,08,42,18.60
2016,08,11,08,43,18.60
2016,08,11,08,44,18.60
2016,08,11,08,45,18.60
2016,08,11,08,46,18.70
2016,08,11,08,47,18.70
2016,08,11,08,48,18.70
2016,08,11,08,49,18.70
2016,08,11,08,50,18.80
2016,08,11,08,51,18.90
2016,08,11,08,52,19.00
2016,08,11,08,53,19.10
2016,08,11,08,54,19.10
2016,08,11,08,55,19.20
2016,08,11,08,56,19.30
2016,08,11,08,57,19.40
2016,08,11,08,58,19.40
2016,08,11,08,59,19.40
2016,08,11,09,00,19.40
2016,08,11,09,01,19.50
2016,08,11,09,02,19.50
2016,08,11,09,03,19.60
2016,08,11,09,04,19.60
2016,08,11,09,05,19.60
2016,08,11,09,06,19.70
2016,08,11,09,07,19.70
2016,08,11,09,08,19.80
2016,08,11,09,09,19.80
2016,08,11,09,10,19.80
2016,08,11,09,11,19.90
2016,08,11,09,12,19.90
2016,08,11,09,13,19.90
2016,08,11,09,14,20.00
2016,08,11,09,15,20.10
2016,08,11,09,16,20.10
2016,08,11,09,17,20.20
2016,08,11,09,18,20.20
2016,08,11,09,19,20.30
2016,08,11,09,20,20.30
2016,08,11,09,21,20.20
2016,08,11,09,22,20.20
2016,08,11,09,23,20.20
2016,08,11,09,24,20.20
2016,08,11,09,25,20.20
2016,08,11,09,26,20.30
2016,08,11,09,27,20.40
2016,08,11,09,28,20.50
2016,08,11,09,29,20.50
2016,08,11,09,30,20.60
2016,08,11,09,31,20.70
2016,08,11,09,32,20.70
2016,08,11,09,33,20.70
2016,08,11,09,34,20.70
2016,08,11,09,35,20.70
2016,08,11,09,36,20.70
2016,08,11,09,37,20.70
2016,08,11,09,38,20.80
2016,08,11,09,39,20.80
2016,08,11,09,40,20.90
2016,08,11,09,41,21.00
2016,08,11,09,42,21.10
2016,08,11,09,43,21.10
2016,08,11,09,44,21.20
2016,08,11,09,45,21.10
2016,08,11,09,46,21.00
2016,08,11,09,47,21.00
2016,08,11,09,48,20.90
2016,08,11,09,49,20.80
2016,08,11,09,50,20.80
2016,08,11,09,51,20.80
2016,08,11,09,52,20.80
2016,08,11,09,53,20.90
2016,08,11,09,54,20.90
2016,08,11,09,55,21.00
2016,08,11,09,56,21.00
2016,08,11,09,57,21.10
2016,08,11,09,58,21.10
2016,08,11,09,59,21.10
2016,08,11,10,00,21.10
2016,08,11,10,01,21.10
2016,08,11,10,02,21.20
2016,08,11,10,03,21.20
2016,08,11,10,04,21.20
2016,08,11,10,05,21.20
2016,08,11,10,06,21.20
2016,08,11,10,07,21.20
2016,08,11,10,08,21.10
2016,08,11,10,09,21.00
2016,08,11,10,10,20.90
2016,08,11,10,11,20.80
2016,08,11,10,12,20.60
2016,08,11,10,13,20.30
2016,08,11,10,14,20.20
2016,08,11,10,15,20.10
2016,08,11,10,16,20.10
2016,08,11,10,17,20.10
2016,08,11,10,18,20.10
2016,08,11,10,19,20.10
2016,08,11,10,20,20.10
2016,08,11,10,21,20.20
2016,08,11,10,22,20.20
2016,08,11,10,23,20.20
2016,08,11,10,24,20.30
2016,08,11,10,25,20.30
2016,08,11,10,26,20.40
2016,08,11,10,27,20.50
2016,08,11,10,28,20.60
2016,08,11,10,29,20.70
2016,08,11,10,30,20.70
2016,08,11,10,31,20.80
2016,08,11,10,32,20.90
2016,08,11,10,33,21.00
2016,08,11,10,34,21.00
2016,08,11,10,35,21.10
2016,08,11,10,36,21.10
2016,08,11,10,37,21.20
2016,08,11,10,38,21.20
2016,08,11,10,39,21.20
2016,08,11,10,40,21.30
2016,08,11,10,41,21.30
2016,08,11,10,42,21.30
2016,08,11,10,43,21.30
2016,08,11,10,44,21.30
2016,08,11,10,45,21.30
2016,08,11,10,46,21.30
2016,08,11,10,47,21.30
2016,08,11,10,48,21.40
2016,08,11,10,49,21.40
2016,08,11,10,50,21.40
2016,08,11,10,51,21.50
2016,08,11,10,52,21.60
2016,08,11,10,53,21.70
2016,08,11,10,54,21.70
2016,08,11,10,55,21.80
2016,08,11,10,56,21.70
2016,08,11,10,57,21.70
2016,08,11,10,58,21.60
2016,08,11,10,59,21.50
2016,08,11,11,00,21.40
2016,08,11,11,01,21.40
2016,08,11,11,02,21.30
2016,08,11,11,03,21.30
2016,08,11,11,04,21.30
2016,08,11,11,05,21.20
2016,08,11,11,06,21.30
2016,08,11,11,07,21.30
2016,08,11,11,08,21.40
2016,08,11,11,09,21.40
2016,08,11,11,10,21.50
2016,08,11,11,11,21.50
2016,08,11,11,12,21.60
2016,08,11,11,13,21.70
2016,08,11,11,14,21.70
2016,08,11,11,15,21.70
2016,08,11,11,16,21.70
2016,08,11,11,17,21.70
2016,08,11,11,18,21.70
2016,08,11,11,19,21.70
2016,08,11,11,20,21.70
2016,08,11,11,21,21.70
2016,08,11,11,22,21.70
2016,08,11,11,23,21.70
2016,08,11,11,24,21.70
2016,08,11,11,25,21.70
2016,08,11,11,26,21.70
2016,08,11,11,27,21.80
2016,08,11,11,28,21.80
2016,08,11,11,29,21.90
2016,08,11,11,30,22.00
2016,08,11,11,31,22.00
2016,08,11,11,32,22.10
2016,08,11,11,33,22.20
2016,08,11,11,34,22.30
2016,08,11,11,35,22.40
2016,08,11,11,36,22.50
2016,08,11,11,37,22.50
2016,08,11,11,38,22.60
2016,08,11,11,39,22.60
2016,08,11,11,40,22.60
2016,08,11,11,41,22.50
2016,08,11,11,42,22.50
2016,08,11,11,43,22.40
2016,08,11,11,44,22.40
2016,08,11,11,45,22.40
2016,08,11,11,46,22.40
2016,08,11,11,47,22.30
2016,08,11,11,48,22.30
2016,08,11,11,49,22.30
2016,08,11,11,50,22.30
2016,08,11,11,51,22.30
2016,08,11,11,52,22.30
2016,08,11,11,53,22.30
2016,08,11,11,54,22.30
2016,08,11,11,55,22.30
2016,08,11,11,56,22.30
2016,08,11,11,57,22.30
2016,08,11,11,58,22.30
2016,08,11,11,59,22.20
2016,08,11,12,00,22.20
2016,08,11,12,01,22.30
2016,08,11,12,02,22.30
2016,08,11,12,03,22.30
2016,08,11,12,04,22.40
2016,08,11,12,05,22.40
2016,08,11,12,06,22.40
2016,08,11,12,07,22.40
2016,08,11,12,08,22.40
2016,08,11,12,09,22.50
2016,08,11,12,10,22.50
2016,08,11,12,11,22.50
2016,08,11,12,12,22.50
2016,08,11,12,13,22.60
2016,08,11,12,14,22.60
2016,08,11,12,15,22.70
2016,08,11,12,16,22.70
2016,08,11,12,17,22.80
2016,08,11,12,18,22.80
2016,08,11,12,19,22.90
2016,08,11,12,20,22.90
2016,08,11,12,21,23.00
2016,08,11,12,22,23.00
2016,08,11,12,23,23.00
2016,08,11,12,24,23.00
2016,08,11,12,25,22.90
2016,08,11,12,26,22.90
2016,08,11,12,27,22.90
2016,08,11,12,28,22.90
2016,08,11,12,29,22.90
2016,08,11,12,30,22.80
2016,08,11,12,31,22.80
2016,08,11,12,32,22.70
2016,08,11,12,33,22.70
2016,08,11,12,34,22.70
2016,08,11,12,35,22.70
2016,08,11,12,36,22.70
2016,08,11,12,37,22.60
2016,08,11,12,38,22.50
2016,08,11,12,39,22.50
2016,08,11,12,40,22.40
2016,08,11,12,41,22.40
2016,08,11,12,42,22.40
2016,08,11,12,43,22.50
2016,08,11,12,44,22.70
2016,08,11,12,45,22.70
2016,08,11,12,46,22.80
2016,08,11,12,47,22.80
2016,08,11,12,48,22.80
2016,08,11,12,49,22.80
2016,08,11,12,50,22.70
2016,08,11,12,51,22.70
2016,08,11,12,52,22.70
2016,08,11,12,53,22.80
2016,08,11,12,54,22.80
2016,08,11,12,55,22.90
2016,08,11,12,56,22.90
2016,08,11,12,57,23.00
2016,08,11,12,58,23.00
2016,08,11,12,59,23.00
2016,08,11,13,00,23.00
2016,08,11,13,01,22.90
2016,08,11,13,02,22.90
2016,08,11,13,03,22.90
2016,08,11,13,04,22.90
2016,08,11,13,05,22.80
2016,08,11,13,06,22.80
2016,08,11,13,07,22.80
2016,08,11,13,08,22.80
2016,08,11,13,09,22.80
2016,08,11,13,10,22.80
2016,08,11,13,11,22.80
2016,08,11,13,12,22.80
2016,08,11,13,13,22.80
2016,08,11,13,14,22.80
2016,08,11,13,15,22.80
2016,08,11,13,16,22.80
2016,08,11,13,17,22.80
2016,08,11,13,18,22.80
2016,08,11,13,19,22.90
2016,08,11,13,20,22.90
2016,08,11,13,21,22.90
2016,08,11,13,22,22.90
2016,08,11,13,23,22.90
2016,08,11,13,24,22.90
2016,08,11,13,25,23.00
2016,08,11,13,26,23.00
2016,08,11,13,27,23.20
2016,08,11,13,28,23.30
2016,08,11,13,29,23.40
2016,08,11,13,30,23.50
2016,08,11,13,31,23.60
2016,08,11,13,32,23.60
2016,08,11,13,33,23.70
2016,08,11,13,34,23.70
2016,08,11,13,35,23.70
2016,08,11,13,36,23.80
2016,08,11,13,37,23.80
2016,08,11,13,38,23.80
2016,08,11,13,39,23.80
2016,08,11,13,40,23.70
2016,08,11,13,41,23.70
2016,08,11,13,42,23.70
2016,08,11,13,43,23.70
2016,08,11,13,44,23.70
2016,08,11,13,45,23.60
2016,08,11,13,46,23.50
2016,08,11,13,47,23.40
2016,08,11,13,48,23.30
2016,08,11,13,49,23.30
2016,08,11,13,50,23.30
2016,08,11,13,51,23.40
2016,08,11,13,52,23.40
2016,08,11,13,53,23.40
2016,08,11,13,54,23.40
2016,08,11,13,55,23.50
2016,08,11,13,56,23.50
2016,08,11,13,57,23.60
2016,08,11,13,58,23.70
2016,08,11,13,59,23.80
2016,08,11,14,00,23.80
2016,08,11,14,01,23.80
2016,08,11,14,02,23.80
2016,08,11,14,03,23.90
2016,08,11,14,04,23.90
2016,08,11,14,05,23.90
2016,08,11,14,06,23.90
2016,08,11,14,07,23.90
2016,08,11,14,08,23.90
2016,08,11,14,09,23.90
2016,08,11,14,10,23.90
2016,08,11,14,11,23.80
2016,08,11,14,12,23.80
2016,08,11,14,13,23.70
2016,08,11,14,14,23.70
2016,08,11,14,15,23.70
2016,08,11,14,16,23.70
2016,08,11,14,17,23.60
2016,08,11,14,18,23.50
2016,08,11,14,19,23.50
2016,08,11,14,20,23.50
2016,08,11,14,21,23.40
2016,08,11,14,22,23.40
2016,08,11,14,23,23.40
2016,08,11,14,24,23.40
2016,08,11,14,25,23.30
2016,08,11,14,26,23.30
2016,08,11,14,27,23.20
2016,08,11,14,28,23.10
2016,08,11,14,29,23.00
2016,08,11,14,30,23.00
2016,08,11,14,31,22.90
2016,08,11,14,32,22.90
2016,08,11,14,33,22.90
2016,08,11,14,34,22.90
2016,08,11,14,35,23.00
2016,08,11,14,36,23.00
2016,08,11,14,37,23.10
2016,08,11,14,38,23.10
2016,08,11,14,39,23.10
2016,08,11,14,40,23.10
2016,08,11,14,41,23.20
2016,08,11,14,42,23.20
2016,08,11,14,43,23.30
2016,08,11,14,44,23.30
2016,08,11,14,45,23.40
2016,08,11,14,46,23.40
2016,08,11,14,47,23.50
2016,08,11,14,48,23.60
2016,08,11,14,49,23.60
2016,08,11,14,50,23.60
2016,08,11,14,51,23.60
2016,08,11,14,52,23.60
2016,08,11,14,53,23.70
2016,08,11,14,54,23.70
2016,08,11,14,55,23.70
2016,08,11,14,56,23.80
2016,08,11,14,57,23.80
2016,08,11,14,58,23.90
2016,08,11,14,59,24.00
2016,08,11,15,00,24.10
2016,08,11,15,01,24.20
2016,08,11,15,02,24.20
2016,08,11,15,03,24.30
2016,08,11,15,04,24.40
2016,08,11,15,05,24.40
2016,08,11,15,06,24.40
2016,08,11,15,07,24.50
2016,08,11,15,08,24.50
2016,08,11,15,09,24.50
2016,08,11,15,10,24.60
2016,08,11,15,11,24.60
2016,08,11,15,12,24.60
2016,08,11,15,13,24.60
2016,08,11,15,14,24.60
2016,08,11,15,15,24.50
2016,08,11,15,16,24.40
2016,08,11,15,17,24.30
2016,08,11,15,18,24.20
2016,08,11,15,19,24.20
2016,08,11,15,20,24.20
2016,08,11,15,21,24.10
2016,08,11,15,22,24.10
2016,08,11,15,23,24.10
2016,08,11,15,24,24.10
2016,08,11,15,25,24.10
2016,08,11,15,26,24.00
2016,08,11,15,27,24.00
2016,08,11,15,28,23.90
2016,08,11,15,29,23.80
2016,08,11,15,30,23.80
2016,08,11,15,31,23.80
2016,08,11,15,32,23.80
2016,08,11,15,33,23.80
2016,08,11,15,34,23.80
2016,08,11,15,35,23.80
2016,08,11,15,36,23.70
2016,08,11,15,37,23.70
2016,08,11,15,38,23.80
2016,08,11,15,39,23.80
2016,08,11,15,40,23.80
2016,08,11,15,41,23.80
2016,08,11,15,42,23.80
2016,08,11,15,43,23.90
2016,08,11,15,44,23.90
2016,08,11,15,45,23.90
2016,08,11,15,46,23.80
2016,08,11,15,47,23.80
2016,08,11,15,48,23.80
2016,08,11,15,49,23.80
2016,08,11,15,50,23.80
2016,08,11,15,51,23.90
2016,08,11,15,52,23.90
2016,08,11,15,53,23.80
2016,08,11,15,54,23.80
2016,08,11,15,55,23.80
2016,08,11,15,56,23.80
2016,08,11,15,57,23.80
2016,08,11,15,58,23.80
2016,08,11,15,59,23.90
2016,08,11,16,00,23.90
2016,08,11,16,01,23.90
2016,08,11,16,02,23.90
2016,08,11,16,03,23.90
2016,08,11,16,04,23.90
2016,08,11,16,05,24.00
2016,08,11,16,06,24.00
2016,08,11,16,07,24.10
2016,08,11,16,08,24.10
2016,08,11,16,09,24.10
2016,08,11,16,10,24.10
2016,08,11,16,11,24.10
2016,08,11,16,12,24.10
2016,08,11,16,13,24.10
2016,08,11,16,14,24.00
2016,08,11,16,15,23.90
2016,08,11,16,16,23.90
2016,08,11,16,17,24.00
2016,08,11,16,18,24.00
2016,08,11,16,19,24.10
2016,08,11,16,20,24.20
2016,08,11,16,21,24.20
2016,08,11,16,22,24.30
2016,08,11,16,23,24.30
2016,08,11,16,24,24.30
2016,08,11,16,25,24.30
2016,08,11,16,26,24.30
2016,08,11,16,27,24.30
2016,08,11,16,28,24.30
2016,08,11,16,29,24.30
2016,08,11,16,30,24.30
2016,08,11,16,31,24.30
2016,08,11,16,32,24.30
2016,08,11,16,33,24.20
2016,08,11,16,34,24.10
2016,08,11,16,35,24.00
2016,08,11,16,36,23.90
2016,08,11,16,37,23.90
2016,08,11,16,38,24.00
2016,08,11,16,39,24.00
2016,08,11,16,40,24.10
2016,08,11,16,41,24.00
2016,08,11,16,42,24.10
2016,08,11,16,43,24.10
2016,08,11,16,44,24.00
2016,08,11,16,45,24.00
2016,08,11,16,46,24.00
2016,08,11,16,47,23.90
2016,08,11,16,48,23.90
2016,08,11,16,49,23.90
2016,08,11,16,50,23.80
2016,08,11,16,51,23.80
2016,08,11,16,52,23.80
2016,08,11,16,53,23.70
2016,08,11,16,54,23.70
2016,08,11,16,55,23.70
2016,08,11,16,56,23.80
2016,08,11,16,57,23.80
2016,08,11,16,58,23.80
2016,08,11,16,59,23.80
2016,08,11,17,00,23.80
2016,08,11,17,01,23.80
2016,08,11,17,02,23.90
2016,08,11,17,03,23.90
2016,08,11,17,04,23.80
2016,08,11,17,05,23.80
2016,08,11,17,06,23.80
2016,08,11,17,07,23.80
2016,08,11,17,08,23.80
2016,08,11,17,09,23.80
2016,08,11,17,10,23.70
2016,08,11,17,11,23.70
2016,08,11,17,12,23.80
2016,08,11,17,13,23.80
2016,08,11,17,14,23.80
2016,08,11,17,15,23.80
2016,08,11,17,16,23.80
2016,08,11,17,17,23.80
2016,08,11,17,18,23.70
2016,08,11,17,19,23.70